Location: Keewatin
(47.4004°N, 93.0827°W)
Time: 02:10:07
(UTC+00:00)

KKS-1 - Pass Details

Date: 28 February 2020
Orbit: 637 x 650 km, 98.3° (Epoch: 06 April)

Event Time Altitude Azimuth Distance (km) Brightness Sun altitude
Rises 03:19:24 0° 3° (N) 2,952 ? -34.5°
Reaches altitude 10° 03:21:57 10° 349° (N) 2,037 ? -34.9°
Enters shadow 03:23:49 19° 328° (NNW) 1,530 ? -35.2°
